Regional Weather Roundup
Issued by NWS

Home | Current Version | Previous Version | Graphics & Text | Print | Product List | Glossary On
Versions: 1 2 3 4 5 6 7 8 9 10 11 12 13 14 15 16 17 18 19 20 21 22 23 24 25 26 27
000
ASUS45 KBOU 240407
RWRCO

WEATHER ROUNDUP FOR COLORADO
NATIONAL WEATHER SERVICE DENVER/BOULDER CO
1000 PM MDT TUE AUG 23 2016

NOTE: "FAIR" INDICATES FEW OR NO CLOUDS BELOW 12000 FEET WITH NO
SIGNIFICANT WEATHER AND/OR OBSTRUCTIONS TO VISIBILITY.

COZ001>005-013-030-031-240500-
...NORTHWEST COLORADO...

CITY           SKY/WX    TMP DP  RH WIND       PRES   REMARKS
CRAIG          FAIR      59  44  57 S22G31    30.23S
HAYDEN         MOCLDY    57  43  58 E14       30.28R
MEEKER         CLOUDY    58  46  64 CALM      30.28F
MOUNT WERNER   NOT AVBL
STEAMBOAT SPGS CLOUDY    53  47  80 E16       30.29F
WALDEN         CLOUDY    57  32  38 S14       30.37F
$$

COZ006>008-011-240500-
...WEST CENTRAL VALLEYS...

CITY           SKY/WX    TMP DP  RH WIND       PRES   REMARKS
GRAND JUNCTION MOCLDY    72  44  36 E13       30.17R
MONTROSE       MOCLDY    61  48  62 SE12      30.29R
EAGLE          MOCLDY    64  45  48 NW5       30.32R
RIFLE          LGT RAIN  58  54  86 NE3       30.27R
DELTA          NOT AVBL
NUCLA          CLOUDY    55  54  94 NW6       30.33R
$$

COZ017>023-064>068-240500-
...SOUTHWEST COLORADO...

CITY           SKY/WX    TMP DP  RH WIND       PRES   REMARKS
DURANGO        MOCLDY    53  51  93 CALM      30.29R
CORTEZ         MOCLDY    54  52  93 S3        30.26R
PAGOSA SPRINGS FAIR      51  49  95 CALM      30.35R
TELLURIDE      CLOUDY    46  45  97 CALM      30.44R
WOLF CREEK PAS FAIR      36  36 100 CALM      30.59S
$$

COZ009-010-012-014-032>034-037-058>063-240500-
...CENTRAL COLORADO...

CITY           SKY/WX    TMP DP  RH WIND       PRES   REMARKS
ASPEN          LGT RAIN  52  46  80 S6        30.38R
BUENA VISTA    RAIN      49  46  91 NW12      30.42F
COPPER MTN     LGT RAIN  37  34  87 N3        30.61S VSB 1/4
BERTHOUD PASS  MIX PCPN  34  21  60 SE16G22   30.64S WCI  23
COTTONWOOD PAS RAIN      45  43  93 CALM      30.51S
GUNNISON       CLOUDY    52  46  82 CALM      30.40S
KREMMLING      RAIN      54  43  66 S9        30.39R
LEADVILLE      LGT RAIN  42  41  96 S6        30.50S
MONARCH PASS   FOG       36  36 100 E16       30.67S VSB<1/4
SALIDA         CLOUDY    55  51  87 CALM      30.46R
SUNLIGHT       DRIZZLE   45  41  87 S3        30.57R
WILKERSON PASS MIX PCPN  37  36  93 S9        30.59S
$$

COZ069>075-240500-
...SAN LUIS VALLEY/SANGRE DE CRISTO MOUNTAINS...

CITY           SKY/WX    TMP DP  RH WIND       PRES   REMARKS
ALAMOSA        FAIR      51  50  96 NE9       30.33F
LA VETA PASS   CLOUDY    43  41  93 W3        30.47S
SAGUACHE       CLOUDY    55  45  67 NW9       30.36S
$$

COZ035-036-038>040-240500-
...NORTHERN COLORADO FRONT RANGE...

CITY           SKY/WX    TMP DP  RH WIND       PRES   REMARKS
DENVER INTL AP CLOUDY    70  41  34 W10       30.19R
DMNS CITY PARK   N/A     69  40  35 SW12G18   30.20R
AURORA         MOCLDY    67  43  41 W20       30.20R
FRONT RANGE AP NOT AVBL
ERIE MUNI ARPT CLOUDY    69  40  33 W18       30.18R
BOULDER MUN AP CLOUDY    70  41  35 W9        30.20R
CENTENNIAL     DRIZZLE   63  45  51 W16G25    30.20S
BROOMFIELD     MOCLDY    68  41  37 W23G38    30.20R
FORT COLLINS   FAIR      72  45  37 S12       30.13F
LONGMONT       LGT RAIN  72  43  35 NW20      30.17F
$$

COZ041-046-047-076>085-087-088-240500-
...PIKES PEAK/PALMER DIVIDE AND SOUTHERN FOOTHILLS...

CITY           SKY/WX    TMP DP  RH WIND       PRES   REMARKS
COLO. SPRINGS  CLOUDY    67  41  38 SW14G23   30.26R
A. F. ACADEMY  MOCLDY    63  41  44 CALM      30.24R
SCHRIEVER AFB  NOT AVBL
ELLICOTT       NOT AVBL
FALCON         CLOUDY    63  40  43 W5        30.28R
FORT CARSON    DRIZZLE   64  46  52 S24       30.24R
LIMON          FAIR      65  39  38 N8        30.16R
MONUMENT HILL  MOCLDY    59  41  51 NW9       30.28F
TRINIDAD       CLOUDY    61  50  67 NW14G23   30.23R
$$

COZ042>045-048>051-090-091-240500-
...NORTHEAST COLORADO...

CITY           SKY/WX    TMP DP  RH WIND       PRES   REMARKS
GREELEY ARPT   FAIR      75  41  29 W10G18    30.12F
AKRON          FAIR      70  32  24 NE9       30.11R
BURLINGTON     FAIR      67  34  29 NE12      30.05R
WRAY           FAIR      63  41  45 N5        30.03R
STERLING       FAIR      64  41  42 CALM      30.06R
HOLYOKE        FAIR      63  43  48 NE7       30.04S
FORT MORGAN    FAIR      71  30  21 N8        30.11R
$$

COZ086-089-092>099-240500-
...SOUTHEAST COLORADO...

CITY           SKY/WX    TMP DP  RH WIND       PRES   REMARKS
PUEBLO         MOCLDY    68  51  54 NW10G32   30.13R
LA JUNTA       MOCLDY    75  49  39 NW20G28   30.11R
LAMAR          FAIR      81  44  27 E6        29.97R
SPRINGFIELD      N/A     72  51  47 S9        30.00S
$$




USA.gov is the U.S. government's official web portal to all federal, state and local government web resources and services.